{"data":{"norad_id":66590,"epoch":"2026-09-20T02:22:43.050432Z","epoch_age_seconds":121573,"freshness":"FRESH","line1":"1 66590U 25270C   26263.09910938  .00017609  00000+0  64749-3 0  9995","line2":"2 66590  43.0014  38.6607 0002758 265.7467  94.3069 15.27597950 47540","mean_motion":15.2759795,"eccentricity":0.0002758,"inclination_deg":43.0014,"raan_deg":38.6607,"arg_perigee_deg":265.7467,"mean_anomaly_deg":94.3069,"bstar":0.00064749,"rev_number":4754,"period_min":94.265641034671,"perigee_km":481.10304750696,"apogee_km":484.88764811001,"semimajor_km":6861.1323478085,"source":"CELESTRAK","updated_at":"2026-09-21T09:00:35.976029Z"}}